SCP
1 1 0 0 1 1 1 1 1 1 1 1 0 0 0 0 0 0 0 1 1 1 1 0 1 1 1 1 1 1 1 1 1 0 0 0 0 0 0 0 0 0 0
0 0 -0 0 0 0 1 1 1 1 1 1 1 1 1 0 0 0 0 0 0 0 0 0 0 0 1 1 1 1 1 1 1 0 0 0 0 0 0 0 0 0 0
-0 -0 -0 -0 -0 0 0 0 0 0 0 1 1 1 0 0 0 0 0 0 0 0 0 0 0 0 0 1 1 1 1 1 1 0 0 0 0 0 0 0 0 0 0
-0 -0 -0 -0 -0 -0 0 0 0 0 0 1 1 1 0 0 0 0 0 0 0 0 0 0 0 0 0 0 1 1 1 1 1 1 0 0 0 0 0 0 0 0 0
-0 -0 -0 -0 -0 -0 0 0 0 0 0 0 0 0 0 0 0 0 0 0 0 0 0 0 0 0 0 0 1 1 1 1 1 1 0 0 0 0 0 0 0 0 0
-0 -0 -0 -0 -0 0 0 0 0 0 0 0 0 0 0 0 0 0 0 0 0 0 0 0 0 0 0 0 0 1 1 1 1 1 1 0 0 0 0 0 0 0 0
-0 -0 -0 -0 0 0 0 0 0 0 0 0 0 0 0 0 0 0 0 0 0 0 0 0 0 0 0 0 0 0 0 0 1 1 0 0 0 0 0 0 0 0 0
-0 -0 -0 -0 0 0 0 0 0 0 0 0 0 0 0 0 0 0 0 0 0 0 0 0 0 0 0 0 0 0 0 0 0 0 0 0 0 0 0 0 0 0 0
-0 -0 -0 -0 -0 -0 -0 0 0 0 0 0 0 0 0 0 0 0 0 0 0 0 0 0 -0 -0 0 0 0 0 0 0 0 0 0 0 0 0 0 0 0 0 0
0 -0 -0 -0 -0 0 0 0 0 0 0 0 0 0 0 0 0 0 0 0 0 0 0 0 -0 -0 0 0 0 0 0 0 0 0 0 0 0 0 0 0 0 0 0
0 0 0 0 0 0 0 0 0 0 0 0 0 0 0 0 0 0 0 0 0 0 0 -0 -0 -0 0 0 0 0 0 0 0 0 0 0 0 0 0 0 0 0 0
0 0 0 0 0 0 0 0 0 0 0 0 0 0 0 0 0 0 0 0 0 0 0 0 -0 0 0 0 0 0 0 0 0 0 0 0 0 0 0 0 0 0 0
0 0 0 0 0 0 0 0 0 0 0 0 0 0 0 0 0 0 0 0 0 0 0 0 0 0 0 0 0 0 0 0 0 0 0 0 0 0 0 0 0 0 0
0 0 0 0 0 0 0 0 0 0 0 0 0 0 0 0 0 0 0 0 0 0 0 0 0 0 0 0 0 0 0 0 0 0 0 0 0 0 0 0 0 0 0
0 0 0 0 0 -0 0 0 0 0 0 0 0 0 0 0 0 0 0 0 0 0 0 0 0 0 0 0 0 0 0 0 0 0 0 0 0 0 0 0 0 0 0
-0 -0 -0 -0 0 -0 0 0 0 0 0 0 0 0 0 0 0 0 0 0 0 0 0 0 0 0 0 0 0 0 0 0 0 0 0 0 0 0 0 0 0 0 0
-0 -0 -0 -0 -0 -0 0 0 0 0 0 0 0 0 0 0 0 0 0 0 0 0 0 0 0 0 0 0 0 -0 0 0 0 0 0 0 0 0 0 0 0 0 0
-0 -0 -0 -0 0 0 0 0 0 0 0 0 0 0 0 0 0 0 0 0 0 0 0 0 0 0 0 -0 -0 -0 0 0 0 0 0 0 0 0 0 0 0 0 0
0 -0 -0 0 0 0 0 0 0 0 0 0 0 0 0 0 0 0 0 0 0 0 0 0 0 0 0 -0 -0 -0 0 0 0 0 0 0 0 0 0 0 0 0 0
0 0 0 0 0 0 0 0 0 0 0 0 0 0 0 0 0 0 0 0 0 0 0 0 0 0 0 0 0 0 0 0 0 0 0 0 0 0 0 0 0 0 0
0 0 0 0 0 0 0 0 0 0 0 0 0 0 0 0 0 0 -0 0 0 0 0 0 0 0 0 0 0 0 0 0 0 0 0 0 0 0 0 0 0 0 0
0 0 0 0 0 0 0 0 0 0 0 0 0 0 0 0 0 0 -0 0 0 -0 0 0 0 0 0 0 0 0 0 0 0 0 0 0 0 0 0 0 0 0 0
0 0 0 0 0 0 0 0 0 0 0 0 0 0 0 0 0 0 0 0 0 -0 -0 0 0 0 0 0 0 0 0 0 0 0 0 0 0 0 0 0 0 0 0
0 0 0 0 0 0 0 0 0 0 0 0 0 0 0 0 0 0 0 0 0 0 0 0 0 0 0 0 0 0 0 0 0 0 0 0 0 0 0 0 0 0 0
0 0 0 0 0 0 0 0 0 0 0 0 0 0 0 0 0 0 0 0 0 0 0 0 0 0 0 0 0 0 0 0 0 0 0 0 0 0 0 0 0 0 0
0 0 0 0 0 0 0 0 0 0 0 0 0 0 0 0 0 0 0 0 0 0 0 0 0 0 0 0 0 0 0 0 0 0 0 0 0 0 0 0 0 0 0
Wind_Speed
0 0 0 1 2 3 3 4 4 5 5 3 2 2 3 1 1 2 4 4 4 4 4 4 5 5 5 6 6 6 7 7 6 4 6 6 8 9 8 8 8 8 9
4 4 3 3 3 2 2 2 3 3 2 2 2 2 1 1 2 2 3 3 4 5 5 5 5 6 6 7 7 7 5 5 6 6 4 5 7 6 7 6 7 8 7
8 6 6 5 5 5 5 4 5 4 4 3 2 1 1 1 2 2 3 3 4 5 5 6 7 7 7 7 8 8 9 7 6 8 6 4 6 2 3 4 5 6 6
8 7 8 7 7 7 6 6 5 5 4 3 3 3 2 2 2 1 3 5 6 7 7 8 8 8 7 8 9 10 9 9 7 6 8 8 4 3 4 3 4 4 5
10 9 9 7 5 6 6 5 4 5 4 3 3 3 2 2 1 1 4 5 5 6 7 8 8 9 8 8 10 10 9 8 8 6 4 5 5 5 5 6 3 3 3
8 9 8 5 4 5 6 5 5 6 5 5 5 5 5 3 2 3 4 4 4 5 7 7 7 9 8 8 9 9 9 8 8 7 6 6 5 4 5 6 6 4 2
7 8 9 8 5 6 7 5 5 7 6 4 4 5 5 4 2 3 4 4 5 6 8 7 8 8 8 8 8 8 8 8 9 8 6 6 7 4 5 6 5 5 2
4 7 8 7 7 8 8 6 6 8 5 3 4 5 5 3 2 3 4 4 4 5 7 8 9 10 8 7 7 7 7 6 7 8 6 5 5 4 5 5 5 4 3
8 9 10 8 8 8 7 6 7 6 4 4 4 4 4 3 3 4 4 3 3 5 7 9 10 11 10 8 7 6 8 6 7 7 6 5 5 6 8 8 7 6 4
12 12 11 9 7 7 7 6 5 3 2 4 5 5 5 5 4 4 4 3 3 4 6 8 10 11 10 9 7 6 7 6 5 4 5 6 7 9 9 9 7 5 5
11 13 15 16 13 11 10 9 7 6 4 4 5 6 5 5 4 5 5 4 4 4 6 7 9 10 10 9 7 4 4 3 3 4 2 1 1 2 3 5 5 3 3
11 12 13 13 14 14 12 12 10 8 6 5 5 6 6 6 6 6 6 4 4 5 6 7 7 9 9 8 8 7 7 5 6 7 6 5 6 6 5 4 4 3 4
14 13 12 11 10 10 9 10 10 10 9 7 6 6 7 7 7 7 6 5 4 4 5 5 4 7 7 7 8 8 9 8 7 7 6 3 4 4 4 2 4 5 6
13 14 13 11 10 9 8 9 9 8 8 8 8 8 9 9 9 7 6 6 4 4 4 4 3 4 4 6 6 7 7 6 7 4 2 2 3 2 3 4 7 8 8
16 16 16 16 15 13 11 9 8 9 8 8 8 9 10 8 8 8 7 6 5 4 3 1 1 2 3 3 4 4 4 3 6 3 3 4 6 5 4 6 8 9 8
15 15 16 16 15 12 12 11 9 9 8 8 8 8 7 8 9 9 8 7 6 5 4 3 2 1 0 2 3 0 1 2 4 1 5 7 9 12 14 16 14 10 9
17 15 14 14 13 11 12 12 13 11 10 9 8 7 7 6 6 7 7 8 8 6 6 5 5 4 3 4 4 1 2 3 1 4 5 5 4 7 9 12 14 13 11
18 15 14 14 13 13 13 12 11 9 10 10 8 6 6 7 5 4 7 8 7 8 8 8 8 6 6 6 5 5 4 4 5 5 4 5 3 4 7 9 9 9 8
14 14 14 14 14 13 12 11 10 9 10 11 9 5 5 6 5 5 6 8 6 7 7 8 9 8 8 10 11 9 5 4 6 4 3 4 4 4 7 10 10 9 8
14 14 13 13 13 14 10 9 11 9 9 10 10 7 6 5 5 5 5 7 7 8 8 8 9 9 9 12 15 12 7 6 4 4 4 5 6 7 6 11 10 10 5
18 17 15 14 15 13 9 12 13 11 12 9 8 9 7 6 5 5 5 5 7 7 8 8 8 8 9 10 15 16 9 8 6 5 4 4 8 9 10 9 7 8 6
19 18 16 17 16 12 11 14 14 15 12 9 9 11 9 6 5 5 4 5 7 10 9 8 6 6 7 10 14 15 13 11 9 6 5 5 9 11 11 9 10 10 7
18 18 18 20 17 13 12 14 16 13 11 10 11 11 10 6 6 6 5 4 7 8 9 9 8 7 6 6 10 11 14 12 8 7 8 8 10 11 9 9 9 7 6
18 19 20 21 19 17 15 16 15 11 10 11 12 10 8 8 6 6 6 5 6 6 7 8 8 8 7 6 7 7 9 10 8 9 9 9 7 7 6 5 5 5 5
20 20 18 20 22 20 17 15 12 9 9 11 10 8 6 7 7 7 6 5 4 4 6 8 10 12 11 11 12 13 11 9 11 10 6 5 5 5 4 4 4 5 5
21 20 21 24 23 22 19 14 10 9 11 10 9 7 5 5 6 6 5 7 8 10 5 6 13 12 13 17 17 17 17 18 16 8 7 6 6 6 6 6 4 4 5
Wind_Direction
171 245 129 150 116 109 135 161 188 181 173 181 199 232 250 259 240 246 262 284 305 302 288 279 277 276 267 261 240 232 228 222 206 221 250 252 244 238 235 233 234 241 247
210 225 233 225 204 203 198 203 227 209 206 194 204 215 226 254 262 288 305 335 328 311 302 290 288 280 275 267 252 235 232 221 188 201 225 253 255 241 242 235 230 238 247
211 217 223 226 227 227 229 234 234 230 230 217 215 250 311 329 331 317 319 326 317 307 301 299 295 286 273 263 255 241 232 239 217 212 221 225 231 246 254 238 234 242 251
229 221 221 221 219 222 222 229 227 229 231 214 219 219 210 223 231 279 313 316 327 325 322 314 305 292 281 273 262 246 235 233 233 219 227 237 216 207 260 254 239 231 249
221 222 228 229 226 228 228 232 244 260 268 261 237 219 226 240 276 324 316 313 315 312 312 314 301 294 285 278 269 255 241 235 233 221 212 225 224 211 230 254 247 239 244
224 235 242 242 235 236 238 227 232 255 253 242 226 207 218 222 252 316 313 309 307 309 308 307 311 307 298 294 289 272 254 245 239 232 208 209 214 204 204 225 234 240 235
239 248 254 255 254 257 250 233 222 252 250 236 209 194 188 181 221 291 294 301 311 321 319 319 316 310 300 292 290 286 271 255 247 242 230 226 226 204 196 214 228 222 196
290 285 279 284 274 264 256 239 226 242 246 227 198 171 164 174 205 254 260 271 287 299 303 308 303 293 290 289 291 286 275 265 254 241 229 220 211 205 210 207 216 210 175
356 340 326 314 295 280 271 240 230 235 234 225 202 180 189 200 224 251 251 258 280 296 305 311 310 303 297 291 291 283 278 269 257 245 241 242 228 213 221 216 209 199 170
27 15 5 351 334 340 339 334 320 294 265 220 208 204 205 215 232 256 271 278 284 295 307 317 319 319 318 317 306 288 284 276 269 270 271 267 249 231 220 210 192 178 147
27 22 19 18 18 25 20 3 351 344 310 262 229 219 212 218 232 248 262 270 284 297 311 320 323 328 335 348 351 350 321 294 322 327 305 21 342 227 187 153 133 125 111
19 18 13 13 17 17 12 6 357 340 310 281 254 242 226 218 228 245 261 270 281 302 310 316 332 338 345 360 14 34 37 19 28 30 42 50 42 27 52 81 96 111 107
12 10 6 2 359 356 354 355 353 341 331 313 279 253 240 230 230 234 255 269 280 298 309 314 346 339 355 26 36 46 46 47 46 36 40 33 67 23 37 67 100 105 94
2 358 355 351 343 336 332 339 341 332 329 323 298 268 248 234 230 228 239 255 263 283 302 313 341 338 359 46 57 57 49 57 63 30 39 46 75 85 128 143 122 114 107
349 345 340 336 334 328 321 321 331 321 325 330 321 295 277 252 232 223 222 233 236 248 257 256 348 351 5 51 70 74 70 72 72 6 48 80 90 93 115 124 116 113 109
333 328 325 318 307 298 300 309 308 304 318 327 321 315 301 274 248 227 211 213 215 219 220 200 179 117 148 152 144 165 128 116 106 91 63 75 80 74 69 71 74 85 109
307 299 293 289 289 293 300 305 300 313 315 303 301 310 317 315 287 251 217 212 204 201 209 197 181 180 206 201 188 158 57 58 97 125 105 81 61 82 82 72 67 62 70
263 272 278 277 278 286 290 292 295 300 297 294 294 308 320 323 320 258 236 229 211 202 204 195 190 184 210 213 184 105 88 79 65 63 90 115 100 74 98 90 72 61 62
260 268 270 273 277 281 288 289 278 282 286 289 291 300 315 318 320 285 246 233 207 210 202 192 187 186 202 202 169 131 118 96 70 63 71 100 105 75 99 100 92 82 70
274 271 273 278 274 269 266 270 267 273 274 279 288 290 288 289 296 293 261 218 207 212 210 191 189 186 189 182 164 142 136 116 104 84 70 83 101 94 104 116 114 102 78
273 274 275 271 265 261 258 267 268 262 259 262 278 276 268 262 262 264 257 232 218 219 216 200 183 182 177 171 162 153 143 138 135 123 112 99 99 98 95 97 103 112 110
279 276 272 267 266 257 255 265 267 265 265 268 278 275 263 256 253 254 269 258 229 219 210 205 180 184 171 175 173 159 143 145 141 142 129 112 97 95 96 97 102 103 96
278 273 270 270 266 254 245 252 258 262 266 268 274 278 277 271 256 243 241 263 250 220 201 194 182 182 173 176 177 164 143 138 138 137 128 118 101 92 82 86 97 101 98
284 285 284 279 271 257 247 244 248 250 256 258 263 272 271 272 271 258 236 223 239 212 203 189 187 179 174 174 167 157 137 131 132 125 118 107 90 89 97 89 82 86 96
293 293 287 280 270 266 255 240 241 246 250 252 256 259 257 267 271 265 254 229 201 214 192 195 197 179 183 184 168 160 159 154 145 134 127 123 120 125 122 110 106 103 107
294 291 291 286 279 276 260 243 245 257 260 259 261 255 248 254 259 262 268 236 213 220 211 252 241 197 179 164 165 165 152 143 140 138 148 151 157 161 156 146 133 122 123